Home   Weather   Grise Fiord   Past weeks

Flag for Canada Past Weather in Grise Fiord, Nunavut, Canada — Yesterday and Last 2 Weeks

Now
8 °F

Frigid.


Feels Like: -13 °F
Forecast: -13 / 5 °F
Wind: 24 mph from Northwest

Location: Kitsissut (Carey Oeer)

Current Time: Apr 27, 2017 at 8:54:56 pm

Latest Report: Apr 27, 2017 at 8:00 pm


Visibility: N/A

Pressure: 29.71 "Hg

Humidity: 75%

Dew Point: 2 °F

Location of Grise FiordLocation

Past Weather in Grise Fiord — Graph

°F

Grise Fiord Temperature Yesterday

Maximum temperature yesterday: 12 °F (at 1:00 pm)
Minimum temperature yesterday: 9 °F (at 1:00 am)
Average temperature yesterday: 11 °F

High & Low Weather Summary for the Past Weeks

 TemperatureHumidityPressure
High17 °F (Apr 14, 3:00 pm)92% (Apr 19, 11:00 pm)30.48 "Hg (Apr 19, 11:00 pm)
Low7 °F (Apr 22, 4:00 am)59% (Apr 22, 8:00 pm)29.44 "Hg (Apr 18, 3:00 am)
Average11 °F77%30.09 "Hg
* Reported Apr 12 7:00 pm — Apr 27 7:00 pm, Grise Fiord, Weather by CustomWeather, © 2017

Note: Actual official high and low records may vary slightly from our data, if they occured in-between our weather recording intervals... More about our weather records

Advertising

Grise Fiord Weather History for the Previous 24 Hours

Scroll right to see more
 ConditionsComfort  
Time TempWeatherWind HumidityBarometerVisibility
7:00 pm
Thu, Apr 27
8 °FFrigid.26 mph74%29.68 "HgN/A
6:00 pm8 °FFrigid.29 mph76%29.66 "HgN/A
5:00 pm9 °FFrigid.31 mph76%29.63 "HgN/A
4:00 pm9 °FFrigid.32 mph77%29.61 "HgN/A
3:00 pm8 °FFrigid.32 mph76%29.59 "HgN/A
2:00 pm8 °FFrigid.31 mph78%29.57 "HgN/A
1:00 pm9 °FFrigid.31 mph81%29.57 "HgN/A
12:00 pm8 °FFrigid.33 mph80%29.55 "HgN/A
11:00 am8 °FFrigid.32 mph81%29.56 "HgN/A
10:00 am8 °FFrigid.35 mph82%29.55 "HgN/A
9:00 am8 °FFrigid.33 mph82%29.54 "HgN/A
8:00 am8 °FFrigid.36 mph83%29.55 "HgN/A
7:00 am8 °FFrigid.36 mph85%29.54 "HgN/A
6:00 am8 °FFrigid.31 mph84%29.55 "HgN/A
5:00 am8 °FFrigid.36 mph85%29.55 "HgN/A
4:00 am8 °FFrigid.36 mph85%29.55 "HgN/A
3:00 am8 °FFrigid.36 mph87%29.53 "HgN/A
2:00 am9 °FFrigid.36 mph86%29.54 "HgN/A
1:00 am12 °FCold.37 mph74%29.55 "HgN/A
12:00 am12 °FCold.33 mph77%29.57 "HgN/A
11:00 pm
Wed, Apr 26
11 °FCold.33 mph76%29.57 "HgN/A
9:00 pm12 °FCold.36 mph77%29.57 "HgN/A
8:00 pm12 °FCold.35 mph74%29.57 "HgN/A
Weather by CustomWeather, © 2017

See weather overviewHow to use our weather pages